GW2949 Weather Reports


time (UTC)temp
F
wind
direction
speed
knots
gust
knots
rain 1hr
in
rain 24hr
in
rain mn
in
humidity
%
barometer
mb
20260507060118 49 101 2.6 4.3 0.00 0.00 0.00 36 1015.8
20260507055119 49 93 1.7 2.6 0.00 0.00 0.00 35 1015.8
20260507054119 48 95 1.7 3.5 0.00 0.00 0.00 37 1015.8
20260507053118 47 109 1.7 2.6 0.00 0.00 0.00 35 1015.7
20260507052118 47 71 0.9 1.7 0.00 0.00 0.00 38 1015.8
20260507051117 47 329 0.9 1.7 0.00 0.00 0.00 37 1015.8
20260507050117 46 125 1.7 3.5 0.00 0.00 0.00 39 1015.8
20260507045118 39 16 2.6 3.5 0.00 0.00 0.00 49 1015.8
20260507044118 39 44 1.7 3.5 0.00 0.00 0.00 48 1015.8
20260507043117 39 20 0.9 0.9 0.00 0.00 0.00 48 1015.6
20260507042119 39 13 1.7 2.6 0.00 0.00 0.00 48 1015.7
20260507041119 39 120 0.9 1.7 0.00 0.00 0.00 49 1015.7
20260507040118 38 27 0.9 1.7 0.00 0.00 0.00 49 1015.6
20260507035119 38 20 0.9 2.6 0.00 0.00 0.00 50 1015.5
20260507034118 38 7 0.9 2.6 0.00 0.00 0.00 50 1015.5
20260507033117 38 321 0.9 3.5 0.00 0.00 0.00 50 1015.5
20260507032118 38 38 1.7 3.5 0.00 0.00 0.00 50 1015.4
20260507031119 38 26 1.7 2.6 0.00 0.00 0.00 50 1015.4
20260507030119 38 25 0.9 2.6 0.00 0.00 0.00 50 1015.5
20260507025138 38 352 0.9 2.6 0.00 0.00 0.00 50 1015.4
20260507024120 38 29 0.9 2.6 0.00 0.00 0.00 50 1015.5
20260507023118 38 152 0.9 0.9 0.00 0.00 0.00 49 1015.5
20260507022118 38 44 1.7 2.6 0.00 0.00 0.00 49 1015.5
20260507021118 38 15 0.9 2.6 0.00 0.00 0.00 50 1015.5
20260507020139 39 52 0.9 1.7 0.00 0.00 0.00 50 1015.4
20260507015138 39 7 0.9 1.7 0.00 0.00 0.00 49 1015.3
20260507014139 39 335 0.9 2.6 0.00 0.00 0.00 48 1015.5
20260507013117 39 125 0.9 0.9 0.00 0.00 0.00 49 1015.3
20260507012118 39 81 0.9 1.7 0.00 0.00 0.00 49 1015.3
20260507011118 39 328 0.9 1.7 0.00 0.00 0.00 48 1015.3
20260507010117 39 53 1.7 3.5 0.00 0.00 0.00 47 1015.3
20260507005118 40 349 0.0 0.9 0.00 0.00 0.00 47 1015.2
20260507004119 40 50 0.9 1.7 0.00 0.00 0.00 50 1015.1
20260507003118 40 37 0.9 2.6 0.00 0.00 0.00 45 1015.1
20260507002141 40 357 0.9 1.7 0.00 0.00 0.00 45 1015.1
20260507001117 41 234 0.9 0.9 0.00 0.00 0.00 45 1015.1
20260507000119 41 14 0.9 1.7 0.00 0.00 0.00 43 1015.1
20260506235117 41 60 0.9 1.7 0.00 0.00 0.00 44 1015.1
20260506234118 41 332 0.9 0.9 0.00 0.00 0.00 47 1015.1
20260506233117 41 26 0.9 3.5 0.00 0.00 0.00 50 1015.1
20260506232118 41 320 1.7 4.3 0.00 0.00 0.00 51 1015.1
20260506231118 41 234 0.0 0.9 0.00 0.00 0.00 54 1015.0
20260506230118 41 306 0.9 1.7 0.00 0.00 0.00 54 1015.1
20260506225118 41 316 0.9 0.9 0.00 0.00 0.00 57 1015.0
20260506224118 41 314 0.9 1.7 0.00 0.00 0.00 58 1014.9
20260506223117 41 354 0.9 2.6 0.00 0.00 0.00 65 1014.9
20260506222118 40 334 0.9 1.7 0.00 0.00 0.00 77 1014.9
20260506221137 40 40 0.9 1.7 0.00 0.00 0.00 84 1014.8
20260506220118 40 58 0.9 0.9 0.00 0.00 0.00 88 1014.8
20260506215118 41 50 0.0 0.9 0.00 0.00 0.00 88 1014.8
20260506214119 41 67 0.9 1.7 0.00 0.00 0.00 86 1014.7
20260506213117 41 12 0.9 0.9 0.00 0.00 0.00 86 1014.7
20260506212118 41 40 0.9 1.7 0.00 0.00 0.00 84 1014.7
20260506211118 41 40 0.9 0.9 0.00 0.00 0.00 85 1014.7
20260506210118 40 33 0.9 0.9 0.00 0.00 0.00 85 1014.6
20260506205118 43 157 0.9 1.7 0.00 0.00 0.00 72 1014.6
20260506204118 43 201 0.9 0.9 0.00 0.00 0.00 72 1014.5
20260506203118 43 135 0.0 0.9 0.00 0.00 0.00 74 1014.4
20260506202118 44 172 0.9 1.7 0.00 0.00 0.00 72 1014.3
20260506201118 44 222 0.9 1.7 0.00 0.00 0.00 71 1014.3
20260506200119 44 206 0.9 0.9 0.00 0.00 0.00 70 1014.3
20260506195118 44 262 0.9 0.9 0.00 0.00 0.00 68 1014.3
20260506194119 44 195 1.7 1.7 0.00 0.00 0.00 68 1014.3
20260506193116 44 211 1.7 1.7 0.00 0.00 0.00 67 1014.3
20260506192119 44 53 0.9 0.9 0.00 0.00 0.00 66 1014.3
20260506191118 45 180 0.9 1.7 0.00 0.00 0.00 66 1014.3
20260506190119 45 194 1.7 3.5 0.00 0.00 0.00 65 1014.3
20260506185117 45 201 2.6 3.5 0.00 0.00 0.00 66 1014.3
20260506184118 45 192 1.7 2.6 0.00 0.00 0.00 66 1014.3
20260506183117 45 204 4.3 7.0 0.00 0.00 0.00 64 1014.3
20260506182119 45 194 4.3 6.1 0.00 0.00 0.00 64 1014.2
20260506181118 45 214 2.6 5.2 0.00 0.00 0.00 65 1014.1
20260506180118 46 200 5.2 7.8 0.00 0.00 0.00 62 1014.3
20260506175118 47 201 3.5 5.2 0.00 0.00 0.00 57 1014.3
20260506174119 47 209 4.3 7.0 0.00 0.00 0.00 55 1014.1
20260506173118 48 206 1.7 3.5 0.00 0.00 0.00 54 1014.1
20260506172119 47 167 1.7 3.5 0.00 0.00 0.00 54 1014.1
20260506171118 48 195 4.3 7.0 0.00 0.00 0.00 54 1014.0
20260506170118 48 119 1.7 3.5 0.00 0.00 0.00 51 1014.0
20260506165138 49 157 1.7 4.3 0.00 0.00 0.00 51 1014.0
20260506164118 49 118 1.7 4.3 0.00 0.00 0.00 49 1014.0
20260506163117 48 165 2.6 7.0 0.00 0.00 0.00 50 1013.9
20260506162118 48 180 2.6 7.8 0.00 0.00 0.00 52 1013.9
20260506161118 47 177 2.6 5.2 0.00 0.00 0.00 55 1013.9
20260506160139 47 192 2.6 7.8 0.00 0.00 0.00 53 1013.9
20260506155118 47 179 3.5 7.8 0.00 0.00 0.00 55 1013.9
20260506154138 46 187 3.5 7.0 0.00 0.00 0.00 57 1014.0
20260506153118 47 161 2.6 6.1 0.00 0.00 0.00 55 1014.1
20260506152139 47 158 3.5 7.8 0.00 0.00 0.00 54 1014.2
20260506151117 47 184 4.3 9.6 0.00 0.00 0.00 53 1014.2
20260506150118 47 193 4.3 10.4 0.00 0.00 0.00 54 1014.1
20260506145118 48 199 7.0 10.4 0.00 0.00 0.00 50 1014.1
20260506144118 49 196 3.5 8.7 0.00 0.00 0.00 48 1014.0
20260506143117 48 190 2.6 5.2 0.00 0.00 0.00 49 1013.9
20260506142118 49 206 3.5 8.7 0.00 0.00 0.00 49 1014.0
20260506141118 49 188 2.6 7.0 0.00 0.00 0.00 51 1014.0
20260506140119 49 104 3.5 8.7 0.00 0.00 0.00 49 1014.1
20260506135118 49 137 2.6 5.2 0.00 0.00 0.00 47 1014.1
20260506134119 49 170 2.6 5.2 0.00 0.00 0.00 51 1014.0
20260506133118 48 184 2.6 7.0 0.00 0.00 0.00 49 1014.0
20260506132139 48 177 4.3 13.0 0.00 0.00 0.00 50 1013.8
20260506131118 49 204 4.3 11.3 0.00 0.00 0.00 51 1014.0
20260506130117 49 190 3.5 7.0 0.00 0.00 0.00 51 1014.0
20260506125137 45 202 9.6 20.0 0.00 0.00 0.00 62 1014.0
20260506124118 45 150 3.5 7.0 0.00 0.00 0.00 62 1014.0
20260506123118 45 199 7.8 13.0 0.00 0.00 0.00 60 1014.1
20260506122118 45 194 5.2 10.4 0.00 0.00 0.00 66 1014.1
20260506121118 45 206 7.8 13.0 0.00 0.00 0.00 62 1013.9
20260506120119 45 197 8.7 13.9 0.00 0.00 0.00 68 1013.9
20260506115137 45 214 4.3 7.8 0.00 0.00 0.00 68 1014.1
20260506114118 45 195 7.0 11.3 0.00 0.00 0.00 65 1014.1
20260506113117 46 188 6.1 11.3 0.00 0.00 0.00 58 1013.8
20260506112118 47 197 5.2 10.4 0.00 0.00 0.00 57 1013.9
20260506111137 46 189 6.1 11.3 0.00 0.00 0.00 61 1013.9
20260506110118 45 197 10.4 14.8 0.00 0.00 0.00 65 1013.8
20260506105117 46 202 7.0 11.3 0.00 0.00 0.00 62 1013.9
20260506104119 48 199 5.2 8.7 0.00 0.00 0.00 57 1013.8
20260506103118 47 197 6.1 8.7 0.00 0.00 0.00 56 1013.8
20260506102118 47 199 4.3 7.8 0.00 0.00 0.00 56 1013.8
20260506101117 51 21 1.7 2.6 0.00 0.00 0.00 52 1013.8
20260506100118 52 131 2.6 6.1 0.00 0.00 0.00 39 1013.6
20260506095117 49 99 1.7 2.6 0.00 0.00 0.00 45 1013.6
20260506094158 51 196 1.7 5.2 0.00 0.00 0.00 41 1013.5
20260506093118 51 74 1.7 6.1 0.00 0.00 0.00 32 1013.5
20260506092118 51 30 0.9 1.7 0.00 0.00 0.00 30 1013.4
20260506091117 51 346 2.6 4.3 0.00 0.00 0.00 32 1013.4
20260506090117 50 148 1.7 3.5 0.00 0.00 0.00 35 1013.4
20260506085157 47 313 2.6 5.2 0.00 0.00 0.00 44 1013.1
20260506084139 49 131 1.7 3.5 0.00 0.00 0.00 39 1013.0
20260506083118 48 329 1.7 4.3 0.00 0.00 0.00 43 1013.1
20260506082139 47 67 1.7 3.5 0.00 0.00 0.00 43 1012.9
20260506081137 47 313 2.6 5.2 0.00 0.00 0.00 45 1013.0
20260506080158 47 27 2.6 6.1 0.00 0.00 0.00 47 1012.8
20260506073117 47 298 1.7 5.2 0.00 0.00 0.00 47 1012.6
20260506072118 47 131 2.6 5.2 0.00 0.00 0.00 48 1012.6
20260506071117 47 77 0.9 2.6 0.00 0.00 0.00 48 1012.6
20260506070118 46 305 2.6 5.2 0.00 0.00 0.00 51 1012.6
20260506062118 44 26 1.7 4.3 0.00 0.00 0.00 58 1012.4
20260506061118 44 252 1.7 5.2 0.00 0.00 0.00 58 1012.4